Theta_e
298 299 297 298 298 298 299 299 299 300 300 300 300 301 301 300 301 301 297 298 297 298 298 298 299 299 300 300 301 302 302 302 302 301 300 299 299 298 298 297 296 296 295 294 294 293 292 291 291 291 291 288 288 287 286 286 286 285 285 284 283 283 283 283 282 279 276 277 281 280 280 280 279 281 280 280 279 281 283 281 280 279 279 280 280
298 298 297 297 297 298 298 298 298 298 298 299 299 300 300 299 299 297 298 298 297 298 298 298 298 299 299 300 300 300 301 302 300 299 298 298 298 298 297 296 295 295 294 294 294 293 293 292 292 291 291 290 289 288 287 286 286 285 284 284 284 283 284 283 282 280 278 276 278 279 278 280 279 281 280 279 279 279 280 280 279 279 279 279 278
296 296 296 296 297 297 296 296 296 295 296 297 298 298 298 297 296 297 297 296 296 298 298 297 297 298 298 298 299 299 299 299 298 297 297 298 298 297 297 296 295 294 294 294 293 293 292 292 292 291 291 289 289 288 287 286 285 284 284 283 283 283 283 284 282 279 278 276 277 277 278 279 279 279 280 280 280 279 279 279 280 279 279 278 278
294 295 295 295 296 294 295 294 293 294 295 296 296 297 296 295 294 295 297 295 295 294 296 297 296 297 297 296 296 297 297 297 297 296 297 297 298 298 297 297 296 296 295 294 294 293 292 291 291 291 290 288 288 287 286 285 285 285 284 283 283 283 283 281 282 281 279 277 277 277 278 278 279 279 280 280 279 278 278 279 279 279 279 279 278
293 294 293 294 294 293 293 292 292 292 293 294 294 294 293 293 292 294 294 294 295 294 294 294 296 297 297 297 296 296 296 296 296 296 296 297 297 297 297 297 296 296 296 295 293 293 292 291 291 290 289 287 287 287 286 285 285 285 285 284 283 283 282 281 280 281 280 279 278 278 278 278 278 278 279 278 278 277 277 277 277 277 278 278 278
291 293 293 292 293 292 292 291 291 292 292 292 292 292 292 292 293 292 293 295 294 294 295 294 295 296 297 297 297 297 296 296 296 296 296 296 296 296 297 296 296 296 295 295 295 294 293 292 291 291 289 288 287 287 287 286 286 285 285 285 284 283 281 280 280 281 282 281 279 277 278 278 277 277 278 279 278 277 276 276 276 276 276 276 276
291 291 292 291 292 292 292 291 292 291 291 291 291 291 291 291 292 293 292 293 294 294 294 295 294 295 297 298 297 297 296 296 296 296 296 296 296 296 296 296 296 295 295 295 295 294 293 293 292 291 290 289 289 288 287 286 285 285 285 285 283 282 280 280 279 280 280 279 279 279 278 278 279 277 277 279 278 278 277 276 275 276 276 276 276
290 290 290 291 292 293 292 291 290 291 290 290 290 290 291 290 291 292 291 292 293 294 294 294 295 294 295 296 297 297 297 296 296 296 296 296 295 295 295 295 295 295 294 294 294 294 294 293 292 291 290 290 289 289 288 286 286 285 285 284 283 282 281 279 279 280 279 279 279 278 278 277 277 276 276 277 276 276 276 277 276 276 275 275 276
289 289 289 290 293 294 292 289 288 289 289 290 290 290 290 291 291 291 291 292 293 293 294 294 293 294 294 294 294 295 296 296 296 296 295 295 295 295 295 295 295 294 294 294 294 294 293 293 292 292 290 289 288 289 289 288 287 285 285 284 282 281 281 280 280 280 279 279 278 278 278 277 277 276 275 275 276 277 278 276 276 276 275 274 275
288 289 289 291 292 292 290 289 289 288 289 289 290 290 290 290 290 290 291 292 292 292 292 292 293 294 294 293 293 294 295 296 294 294 295 296 295 295 295 294 295 295 294 294 293 293 293 293 292 289 288 287 287 288 289 288 288 287 285 283 282 282 281 280 280 280 279 279 278 278 277 277 277 278 277 278 278 278 276 276 275 276 274 274 275
287 288 290 291 290 289 289 289 288 289 290 289 289 289 289 289 289 290 290 291 291 291 291 292 293 293 293 293 293 293 294 295 293 295 295 295 295 295 294 294 294 294 293 293 293 293 293 292 292 289 288 287 287 288 289 288 288 288 287 285 284 283 281 280 280 280 279 279 279 278 279 278 278 279 279 278 278 277 277 276 276 275 274 273 273
288 289 289 289 289 289 288 288 288 289 288 289 289 288 288 288 288 289 289 289 290 290 291 292 293 294 294 293 293 294 294 293 294 295 295 295 294 294 294 294 293 293 293 293 293 293 292 292 291 290 289 288 287 287 287 287 288 287 287 286 286 286 286 283 281 280 280 280 279 279 280 280 279 279 278 278 277 277 277 275 275 275 274 274 274
287 288 288 288 289 288 288 288 288 288 289 289 288 287 287 288 288 288 289 290 288 289 291 292 293 294 294 294 294 294 293 294 294 294 294 294 295 294 294 293 293 292 293 293 293 293 292 291 290 289 288 286 286 286 286 286 286 287 287 286 286 287 287 287 286 283 283 282 280 280 280 281 280 279 279 279 279 277 276 275 275 275 275 275 275
286 287 287 288 288 287 287 287 288 288 288 287 286 287 287 288 288 289 289 288 289 289 289 290 292 293 294 294 294 294 294 293 294 294 294 294 294 294 293 293 292 292 292 292 292 292 292 291 290 289 288 286 286 286 285 285 285 285 285 284 284 284 286 287 286 286 285 284 283 281 282 283 281 281 281 281 278 277 276 275 276 275 275 275 276
287 286 287 287 286 286 286 287 287 288 287 287 286 287 287 288 288 288 288 288 288 289 289 289 290 290 292 293 293 294 294 294 294 294 294 294 294 293 293 293 292 292 292 292 292 292 291 291 290 289 288 286 286 286 285 284 284 284 284 283 283 283 283 284 284 283 283 283 284 283 283 283 283 283 281 281 280 279 278 277 277 276 276 274 272
286 285 286 286 286 286 286 286 286 287 287 286 286 287 287 287 288 288 288 288 288 288 288 288 289 289 289 290 291 292 293 294 294 293 293 294 294 292 292 292 291 291 291 291 291 291 291 291 290 289 288 287 286 287 286 285 284 283 282 282 282 282 283 284 286 285 284 284 285 284 283 283 285 282 281 280 280 279 277 275 276 274 273 272 273
287 287 287 288 287 287 287 287 287 287 287 287 287 287 287 287 287 287 287 288 288 288 288 288 288 288 288 288 289 290 291 292 293 293 293 293 293 291 291 290 290 290 290 291 290 290 290 290 289 288 288 286 287 288 287 286 283 283 282 281 281 281 282 284 286 286 286 286 286 287 286 286 286 285 284 284 281 278 276 274 273 273 272 271 271
287 286 287 287 287 287 287 287 287 287 287 288 288 288 288 287 287 287 287 288 288 288 288 288 288 288 288 288 289 289 289 290 292 292 292 293 291 290 290 290 289 289 289 290 290 290 289 287 287 287 287 286 287 288 287 285 283 282 281 280 280 280 281 283 284 284 286 286 286 286 286 286 286 286 286 285 284 281 277 275 275 274 273 273 273
286 287 287 287 286 286 286 286 286 287 287 287 288 288 288 288 288 287 287 287 288 288 287 287 287 287 287 288 288 288 288 288 291 291 292 292 291 290 289 289 288 288 289 288 289 289 288 287 286 286 286 286 288 287 287 285 282 282 281 280 279 279 281 282 282 282 283 282 283 283 283 284 284 284 284 285 284 281 279 278 275 274 274 273 272
287 286 286 286 286 286 285 286 286 286 287 287 287 287 288 287 287 287 287 287 287 287 287 287 287 287 287 287 287 287 287 288 288 291 291 291 292 290 289 289 288 288 288 288 288 287 286 286 286 287 288 287 287 287 287 286 283 282 282 280 280 280 282 282 282 282 282 282 282 282 281 282 282 282 282 283 283 280 279 278 276 276 275 273 272
285 286 285 285 285 286 286 285 286 286 286 287 287 287 287 287 287 286 286 286 286 286 286 286 287 287 287 286 287 287 287 287 287 290 291 291 291 290 289 288 288 288 288 288 287 287 285 284 284 286 288 287 287 287 287 286 285 283 282 281 282 283 284 282 281 282 281 281 280 280 280 280 280 280 280 281 282 280 279 279 277 277 276 274 272
285 285 285 285 286 285 285 285 285 286 286 286 286 286 286 286 286 286 286 285 285 286 286 286 286 286 287 286 286 286 286 286 287 288 289 290 291 291 289 288 288 288 287 287 287 286 285 284 282 284 286 286 286 287 287 287 286 284 283 285 286 286 284 283 282 281 280 279 278 278 277 277 278 278 278 279 279 279 279 278 277 276 277 277 275
285 285 285 285 285 285 285 285 285 285 285 285 285 285 286 285 285 284 284 284 284 284 285 285 285 285 285 286 285 285 285 285 286 286 288 289 290 290 290 289 290 288 287 286 286 286 284 282 282 283 285 286 286 287 287 287 286 284 286 286 287 286 284 282 281 280 278 278 277 276 276 276 276 276 276 277 278 277 277 277 277 276 276 276 277
284 283 284 284 284 284 284 284 284 284 284 284 284 284 284 284 284 284 282 283 284 284 284 284 284 284 284 285 284 283 283 284 285 286 286 288 289 290 290 290 290 288 287 286 286 284 282 281 282 283 285 285 286 286 287 286 285 286 286 287 287 285 282 280 279 279 277 276 276 275 275 275 275 275 275 277 277 276 276 275 275 275 275 274 275
282 282 283 283 283 284 284 284 283 282 282 281 282 283 283 282 283 282 280 282 282 283 284 283 283 284 284 284 284 283 282 282 283 285 285 286 288 289 289 290 290 290 287 286 285 283 283 283 283 283 285 285 286 286 286 286 286 286 286 286 285 282 280 279 278 277 276 275 275 276 275 274 275 276 276 275 275 274 273 272 272 272 272 273 272
281 282 282 282 283 282 282 282 282 281 280 280 281 282 282 283 283 283 280 281 281 282 283 283 283 283 283 284 283 283 282 282 283 283 284 284 285 286 288 288 287 288 287 286 284 284 284 283 283 284 284 284 284 284 284 285 285 285 286 285 283 281 280 279 278 277 277 276 275 275 275 275 274 274 274 273 272 272 272 272 271 271 271 271 270
280 281 281 282 283 282 281 282 282 282 280 279 279 280 281 281 281 282 281 281 281 281 282 282 282 283 283 283 284 284 283 282 282 282 282 283 283 284 285 285 286 286 286 284 283 283 283 282 282 283 283 284 284 284 284 284 284 284 285 284 283 281 280 279 278 278 277 276 276 276 275 274 273 273 272 271 272 272 272 273 272 271 271 271 271
280 281 281 281 281 281 281 280 280 281 281 280 280 280 279 280 280 281 282 281 281 281 281 281 282 282 283 283 284 284 283 281 281 281 282 282 283 284 284 284 285 285 284 283 282 282 282 282 282 282 282 282 283 283 283 283 283 283 284 284 283 282 281 281 280 279 278 277 276 275 274 273 272 272 272 272 272 272 272 272 272 272 272 272 270
280 280 280 281 281 281 280 280 280 280 280 280 279 279 280 281 281 281 281 282 283 283 282 282 283 283 284 285 284 284 283 282 282 284 283 284 283 283 283 284 284 284 284 283 281 281 281 280 280 280 280 280 281 281 282 282 282 283 283 283 282 281 280 279 278 277 277 276 275 275 274 273 273 273 272 272 272 272 272 272 273 273 273 272 272
278 279 280 280 280 280 280 280 279 278 278 279 279 279 278 281 281 281 281 282 283 285 286 284 284 284 285 285 286 284 284 285 285 284 284 284 285 285 285 285 286 284 284 285 282 280 280 279 279 279 279 280 280 280 280 281 281 281 282 283 281 280 280 279 279 277 277 277 276 275 274 274 273 273 273 273 273 273 273 274 273 274 272 271 270
277 278 279 280 280 280 280 279 279 278 278 277 277 278 279 279 282 284 284 283 284 285 286 286 286 286 285 284 285 286 286 285 284 284 284 284 285 285 286 286 286 285 285 283 280 279 279 278 279 279 279 280 279 280 280 280 280 280 281 281 281 280 280 279 279 278 277 277 276 276 275 274 274 274 273 273 273 273 272 274 273 273 272 271 270
276 277 278 279 279 279 279 279 278 278 278 276 276 277 277 278 279 282 284 284 285 285 285 286 286 286 286 286 284 283 285 285 285 284 284 284 285 285 286 286 286 285 285 284 280 279 279 278 278 278 279 279 279 279 280 280 280 280 280 280 279 280 279 279 278 278 277 277 276 276 275 275 275 274 274 274 273 273 272 271 271 271 271 271 270
275 276 277 278 278 278 279 278 278 278 278 277 276 276 277 277 278 279 279 284 284 284 285 285 286 286 286 286 286 285 284 284 284 284 284 284 284 285 285 286 286 286 285 282 279 279 279 279 278 278 279 278 279 279 280 280 280 280 280 280 279 278 279 279 279 277 277 277 277 276 275 275 275 274 274 274 273 272 271 271 271 270 270 269 269
273 275 276 277 277 278 279 279 279 279 278 278 277 277 278 279 279 279 279 279 280 283 285 285 285 285 285 285 285 285 285 284 284 284 284 284 284 285 285 285 286 286 284 280 280 279 279 279 279 279 279 279 280 280 279 280 280 280 279 279 279 278 277 277 277 277 276 277 276 275 275 275 274 274 273 273 273 272 271 270 270 269 269 269 268
272 273 274 275 277 277 278 279 280 280 280 280 279 278 279 279 279 279 280 280 280 280 280 281 284 285 284 284 285 285 284 284 284 284 284 284 284 285 285 283 282 283 283 281 280 279 279 279 279 279 280 279 279 279 279 279 279 279 279 278 277 276 276 276 276 276 275 275 274 274 274 274 274 273 273 271 271 270 270 269 269 269 268 268 267
270 272 273 275 277 278 279 279 280 280 280 280 281 280 280 280 279 279 279 280 280 280 279 279 279 282 284 284 284 284 284 284 284 284 284 284 284 285 282 281 281 281 281 281 280 280 279 279 279 279 279 279 279 278 279 278 278 278 278 277 276 276 275 275 275 274 274 274 273 273 273 272 272 272 272 271 271 270 270 269 268 268 268 268 267
269 270 271 273 275 277 279 280 280 281 281 281 280 280 280 279 279 279 279 279 279 279 279 278 279 279 281 279 282 283 284 284 284 284 284 284 284 284 281 281 280 281 280 280 280 279 278 278 279 278 278 278 277 277 277 277 276 276 277 277 276 276 275 275 274 273 273 272 272 272 272 271 270 271 271 270 270 270 270 269 268 267 267 267 267
268 269 271 273 275 276 278 279 280 281 281 281 281 280 279 279 279 279 278 278 278 278 277 277 278 278 278 278 282 281 282 283 283 283 283 283 283 282 280 279 279 279 279 279 279 278 277 276 277 276 276 276 276 276 276 275 275 275 275 274 275 274 275 275 275 273 272 271 270 270 271 270 270 270 270 270 269 268 268 268 268 267 267 268 267
267 270 272 273 275 276 278 279 280 280 280 280 280 280 279 279 278 278 278 278 277 277 276 277 277 276 277 278 279 280 281 279 279 279 280 280 281 280 279 278 278 278 277 277 276 276 276 275 275 275 275 275 275 275 275 274 274 273 273 273 272 273 274 273 273 272 271 270 269 269 270 270 269 269 270 270 269 268 268 267 268 267 267 266 267
267 268 270 272 274 275 277 278 279 280 280 280 280 280 279 278 278 278 278 277 277 276 276 276 275 275 276 277 277 278 278 277 277 278 278 279 277 277 278 277 277 276 275 275 275 275 274 274 273 273 273 273 273 273 273 273 273 272 272 272 272 272 272 272 271 270 270 269 268 268 268 268 268 268 268 269 269 269 268 267 267 267 267 266 266
266 267 269 271 273 274 276 277 278 279 279 279 280 279 279 278 278 277 277 277 276 275 275 275 275 274 276 277 280 279 276 276 277 277 277 276 275 275 275 275 275 274 274 273 273 273 274 273 273 273 272 272 272 272 272 272 272 272 272 271 271 271 271 270 270 269 269 268 268 267 267 266 265 265 266 266 269 269 268 267 267 266 266 266 266
265 266 267 269 272 273 275 275 277 277 278 278 279 279 278 277 277 277 276 275 274 274 274 274 273 274 276 280 280 280 276 275 276 276 276 276 275 274 274 274 275 275 274 273 273 273 273 272 272 272 272 271 272 272 272 272 272 272 272 271 271 271 270 269 269 269 268 268 268 267 266 266 265 266 267 268 267 267 267 266 266 266 266 265 265
265 265 267 269 271 272 274 275 276 277 277 278 277 275 276 277 277 276 275 274 274 274 273 272 272 273 276 279 279 278 275 275 273 274 273 273 272 271 270 269 269 269 270 270 271 272 272 272 271 271 271 271 272 272 272 272 272 272 272 271 271 271 271 270 270 269 269 269 268 268 267 267 267 267 267 267 266 267 266 266 265 265 264 264 263
264 265 267 269 271 272 273 274 274 275 275 274 273 274 274 275 275 275 274 274 273 273 272 272 272 273 273 273 274 273 273 273 272 271 270 269 268 267 266 267 267 267 268 268 269 271 273 271 268 266 266 265 265 267 268 269 272 273 272 272 271 271 271 271 271 271 270 270 269 269 268 268 268 267 267 267 267 266 266 266 265 265 264 264 263
264 267 269 270 271 271 271 271 271 271 270 271 271 271 271 273 273 273 272 272 271 271 270 270 271 272 270 270 270 269 269 268 267 267 266 265 265 264 264 265 265 265 265 264 265 268 269 269 268 267 265 264 264 264 265 264 265 267 270 272 272 272 272 272 272 272 272 271 270 269 269 268 268 267 267 267 266 266 265 265 265 264 263 262 262
266 267 268 268 268 269 269 269 269 270 270 270 270 269 268 269 269 269 268 268 268 268 268 269 269 268 267 267 266 266 266 265 264 263 263 262 261 261 261 261 262 262 262 262 263 263 265 266 266 266 264 263 263 262 262 262 263 263 263 264 266 265 264 264 266 268 269 270 270 269 268 268 267 266 266 266 266 266 265 264 264 263 263 262 261
265 266 266 266 266 266 266 266 267 267 267 267 266 266 266 265 266 265 265 266 266 266 267 267 267 266 265 264 264 264 263 262 261 261 260 260 260 260 260 261 260 260 260 260 261 262 262 261 262 262 262 261 261 261 260 261 262 261 261 262 262 262 262 262 263 265 265 266 267 267 266 266 265 264 264 264 263 263 263 262 262 261 261 261 260
263 264 264 264 264 264 264 265 265 264 264 264 264 264 264 264 264 264 264 265 265 265 264 264 264 263 262 262 262 261 261 260 260 260 260 259 259 259 259 259 259 259 259 259 259 259 260 260 260 260 260 260 260 259 259 258 259 260 260 259 259 259 259 260 260 260 261 263 264 265 265 265 264 263 262 262 262 261 261 260 259 259 259 258 258
262 262 262 263 263 263 263 263 263 263 262 263 262 262 262 263 263 263 263 263 263 263 262 262 262 261 261 261 261 261 261 260 260 259 259 258 258 258 258 258 258 258 258 258 258 257 258 258 257 257 257 258 258 258 258 258 257 257 257 257 259 259 258 257 256 256 256 258 259 260 261 261 261 260 260 260 260 260 260 259 258 257 256 256 256
260 261 261 261 261 261 262 262 262 262 262 262 262 262 262 261 261 261 262 262 261 261 261 261 261 261 261 261 261 261 260 260 259 259 258 259 258 258 258 258 258 258 258 257 257 257 257 257 257 257 256 256 255 255 255 255 256 255 255 259 261 260 260 259 257 256 255 255 256 257 258 257 257 257 257 258 257 257 257 257 257 256 256 255 255
260 260 259 259 259 260 260 260 260 261 261 261 261 261 261 260 260 260 260 260 260 260 260 260 260 260 260 260 260 260 260 259 259 259 259 259 258 258 258 258 258 257 257 257 257 256 256 256 256 256 256 255 255 254 254 254 253 254 258 261 260 260 259 258 257 257 256 254 254 256 256 256 255 255 254 255 255 256 257 256 255 255 254 253 253
Wind_Speed
6 9 5 8 7 10 9 8 10 8 7 8 10 10 9 9 9 9 6 9 7 9 9 9 9 9 9 10 10 10 10 9 8 9 10 11 11 12 11 12 14 13 12 14 13 13 14 16 16 16 13 11 11 11 11 11 10 10 11 10 9 7 8 9 10 4 1 1 4 8 8 10 10 11 10 8 7 7 7 6 6 6 6 6 5
8 7 5 6 8 10 10 7 7 6 8 9 11 11 9 9 8 5 9 9 8 10 10 9 9 9 10 10 10 10 10 10 8 8 9 11 12 11 11 12 12 13 12 14 14 12 13 15 16 14 14 16 14 13 13 13 13 13 12 12 13 12 10 10 8 8 7 1 4 5 6 9 9 10 12 11 9 7 8 6 5 6 6 5 6
4 5 6 7 9 9 7 8 6 7 9 10 11 11 9 7 6 9 9 8 8 9 10 10 9 9 10 10 10 10 11 10 8 9 10 12 12 12 12 13 14 14 14 15 15 13 13 13 15 15 11 14 15 14 12 13 12 13 13 10 12 12 12 11 9 7 9 7 5 8 9 9 9 10 11 8 7 8 8 8 7 6 6 6 6
4 5 6 8 8 7 8 8 7 9 10 11 11 10 8 7 7 9 9 7 9 8 8 9 9 10 11 10 10 9 10 10 9 9 11 12 12 13 13 14 14 15 15 15 15 14 15 15 16 14 13 14 14 13 11 11 11 11 13 11 10 10 9 8 8 8 7 9 7 9 9 10 5 5 8 7 8 7 7 5 4 6 6 6 7
5 6 6 8 8 8 9 7 8 10 12 10 10 9 8 8 7 9 8 9 9 8 9 7 10 10 11 12 11 10 10 9 9 10 10 11 12 13 13 13 14 15 16 16 15 15 15 16 16 13 11 13 12 10 11 15 14 13 14 12 13 12 10 10 9 7 9 10 8 4 5 3 2 5 9 10 6 5 4 6 6 7 6 6 5
5 6 6 7 9 9 10 7 10 11 10 9 10 9 8 8 9 8 9 10 9 9 10 9 10 11 11 12 12 11 10 10 10 11 11 11 11 12 12 13 13 14 14 14 14 14 15 16 15 14 14 16 17 15 14 17 15 14 15 13 12 10 10 10 9 8 10 10 10 7 5 6 5 3 5 7 9 7 5 5 3 5 5 5 6
5 5 5 6 8 10 9 9 9 9 9 9 7 7 8 8 8 10 9 10 10 10 10 10 10 11 12 11 12 12 11 11 11 12 12 12 12 13 13 13 13 13 14 14 14 14 15 15 15 15 17 18 18 17 17 16 15 17 17 15 12 10 10 10 8 8 8 9 5 7 8 4 5 7 4 5 5 6 8 6 7 6 5 6 7
5 5 5 7 9 11 9 7 7 8 7 7 7 7 7 8 9 9 7 10 11 11 11 11 10 9 11 11 11 11 10 10 11 12 12 12 12 12 13 13 13 13 14 14 14 14 15 16 16 16 17 18 18 18 15 14 13 16 15 13 13 14 13 10 9 8 8 8 8 8 6 7 4 4 5 6 5 2 6 8 10 7 7 6 7
5 5 5 8 11 10 7 5 4 5 7 7 7 8 8 8 8 8 9 10 10 10 9 9 9 11 10 11 10 9 10 12 11 11 12 12 12 13 13 13 13 14 14 14 14 14 14 14 15 16 18 21 24 21 20 20 16 15 14 13 12 13 11 9 9 9 7 9 7 5 7 6 6 7 7 6 12 14 8 7 7 5 4 4 5
4 5 7 9 9 7 5 5 5 6 6 8 9 8 8 8 8 8 10 10 9 9 8 8 10 12 11 11 10 10 11 10 12 17 16 13 12 12 11 13 14 14 14 14 14 14 15 15 15 21 22 23 24 23 23 23 23 17 15 16 16 14 13 12 10 10 10 10 9 10 9 9 10 11 11 11 8 4 6 8 9 6 4 4 5
4 5 9 8 6 5 5 6 5 7 8 7 7 7 8 7 8 9 10 9 10 9 8 10 12 11 11 12 12 11 11 11 16 18 19 21 14 12 13 13 12 13 14 14 15 15 14 15 14 15 18 18 19 22 20 20 21 18 17 18 18 19 16 15 15 14 13 11 11 11 11 11 11 10 11 9 8 10 8 8 9 6 7 7 7
5 6 7 6 6 6 6 5 6 8 7 8 8 7 6 7 9 9 9 9 10 7 9 12 11 11 11 12 13 12 12 13 18 19 20 21 19 14 12 12 12 13 13 14 14 13 14 13 13 11 12 15 15 16 20 24 25 24 23 22 22 23 25 21 18 15 15 14 12 12 12 12 12 10 9 9 10 8 8 8 9 10 9 8 6
5 6 6 6 7 6 5 5 7 8 8 7 6 5 6 8 9 9 11 10 6 9 12 11 12 12 12 13 14 13 12 14 18 20 20 20 20 18 13 13 13 13 14 15 15 14 13 12 13 12 11 17 15 13 12 12 15 17 17 20 21 21 21 24 25 20 15 15 16 15 15 13 12 12 13 13 10 12 10 9 9 9 9 8 8
4 5 5 6 6 5 6 6 7 8 7 6 5 6 7 10 9 8 8 6 9 10 10 12 12 12 13 13 13 13 14 14 19 20 19 20 20 18 14 14 13 14 15 14 14 14 14 14 13 13 12 12 13 14 13 13 13 14 12 10 12 15 16 16 17 17 18 17 17 17 14 12 14 13 14 13 14 13 11 12 10 9 9 10 5
6 5 6 6 5 5 5 6 7 7 6 6 5 7 8 9 8 8 7 9 9 11 11 11 12 11 12 12 12 14 13 15 17 19 19 20 20 18 14 13 13 14 14 14 14 14 13 13 14 14 12 12 12 15 14 14 12 12 11 10 8 7 9 10 10 9 6 3 8 11 13 12 10 11 12 12 13 12 12 13 13 11 5 3 5
5 4 5 5 4 4 4 5 5 6 5 5 6 8 8 8 9 7 7 8 8 8 9 9 12 11 11 11 13 15 13 15 17 18 19 19 20 14 13 13 14 14 14 13 13 12 12 13 13 13 13 13 15 21 18 11 13 15 14 12 10 9 9 7 7 7 9 9 10 9 11 13 10 8 10 10 8 4 5 5 5 5 6 5 6
6 6 7 7 7 6 6 7 8 7 6 7 7 8 8 9 8 5 8 9 9 10 11 11 10 10 11 11 13 15 13 13 17 18 18 19 16 11 12 12 13 14 14 12 12 12 12 12 12 12 12 12 16 20 21 18 14 16 15 15 13 11 10 6 9 11 10 7 8 7 11 14 14 14 15 17 11 9 7 7 6 7 7 7 5
6 6 7 7 7 7 7 7 8 9 8 9 10 9 8 7 8 6 9 10 10 11 9 10 10 10 11 12 13 13 14 11 15 17 18 19 16 12 11 11 14 13 13 12 11 12 13 17 15 12 12 12 18 21 23 20 15 16 15 14 14 13 11 9 7 7 10 9 10 11 13 15 15 15 16 16 17 13 10 10 8 8 8 7 8
6 6 8 7 7 7 6 7 7 8 9 10 9 10 10 9 8 6 8 8 10 8 7 9 10 9 10 12 13 14 13 11 14 16 18 18 16 11 11 11 13 13 11 12 11 11 12 11 16 15 12 14 20 22 25 21 14 15 16 16 17 18 16 13 11 11 9 8 6 7 7 10 9 9 10 17 17 13 10 8 8 9 9 7 5
7 6 7 7 7 7 6 7 8 7 10 10 9 9 8 8 8 8 8 8 9 8 8 9 11 11 8 10 11 11 12 11 10 15 16 18 19 13 10 11 13 13 11 11 11 10 9 8 11 19 22 19 20 23 24 23 16 15 15 16 18 20 14 14 12 11 11 11 9 8 7 7 7 6 7 9 11 12 9 7 9 9 8 7 7
7 7 7 8 8 8 7 6 9 9 7 9 10 9 7 8 9 7 9 8 8 9 9 9 10 11 9 9 9 10 10 11 10 14 16 17 19 18 11 13 12 11 11 11 11 10 8 8 7 15 19 18 20 22 23 25 21 16 17 18 19 15 14 14 13 14 11 10 8 8 7 7 7 7 7 8 8 8 8 7 8 8 8 8 7
8 8 9 9 9 9 8 8 6 8 8 7 9 11 8 7 8 8 8 7 9 11 9 8 9 11 9 8 9 10 9 12 10 12 16 17 18 21 14 13 12 11 12 12 10 9 9 7 8 11 16 19 21 22 24 25 23 14 17 18 19 19 16 12 12 11 9 8 8 7 7 7 7 7 7 8 8 7 8 7 7 7 7 7 9
9 10 10 11 11 10 9 9 9 7 8 8 8 11 9 7 8 7 7 8 9 11 10 8 9 10 10 8 8 8 7 8 12 11 14 17 19 20 21 17 16 11 11 12 12 10 7 7 7 11 18 18 21 22 22 26 22 15 19 19 23 22 13 11 11 10 9 8 8 8 8 8 7 8 7 8 7 7 7 6 6 6 5 4 4
8 10 11 11 11 11 10 9 8 7 8 8 8 10 10 8 7 7 6 7 8 9 9 7 8 10 11 10 7 6 6 7 9 13 12 17 19 21 21 21 18 13 12 12 10 7 7 7 7 14 20 20 22 21 22 23 16 20 18 19 22 20 11 10 10 10 9 9 8 8 8 7 7 7 8 8 7 7 6 5 5 5 5 4 3
10 11 11 11 10 10 10 9 9 8 7 7 9 9 9 7 8 7 5 7 7 9 10 7 8 9 9 10 8 6 6 7 7 9 14 15 19 19 19 20 20 20 14 10 7 8 9 13 14 17 19 21 23 23 21 24 25 21 21 19 18 11 11 11 11 10 10 10 9 8 7 8 9 7 4 4 4 4 4 3 3 3 3 3 2
11 13 12 10 10 9 10 11 8 7 7 6 7 8 8 8 8 8 6 7 7 8 9 8 8 9 10 9 8 8 6 6 6 6 7 10 12 16 19 20 19 18 17 12 12 12 13 14 17 18 19 18 14 12 11 13 23 22 22 21 13 10 10 10 10 10 9 8 8 8 7 6 5 4 4 5 6 6 6 6 6 4 5 5 4
12 12 12 11 11 10 10 10 11 10 7 6 6 7 7 7 8 8 7 7 7 8 8 8 9 9 9 9 9 8 7 5 5 5 6 7 7 8 10 12 15 16 12 8 7 8 11 13 11 15 13 19 18 15 13 13 15 14 12 12 10 10 9 9 10 9 8 8 7 6 5 5 5 5 5 6 6 5 5 6 6 6 6 5 5
12 13 14 11 10 10 10 12 12 10 11 8 8 8 7 6 8 9 8 7 8 9 8 9 9 9 9 9 8 8 7 5 5 6 8 7 6 7 7 8 8 8 8 7 7 7 8 9 12 10 9 10 11 9 9 9 11 12 10 8 7 7 8 8 6 6 6 6 6 6 6 6 6 6 6 6 6 5 5 6 6 5 5 6 4
13 14 13 10 11 9 8 9 9 9 10 10 8 8 9 8 8 9 8 6 8 9 9 9 9 7 8 8 8 9 7 7 8 6 6 9 8 7 7 7 6 6 8 10 7 7 7 8 8 8 9 10 10 10 9 9 10 12 12 9 7 7 7 7 8 7 7 7 8 8 7 6 6 6 6 6 6 6 5 5 4 5 4 5 6
13 14 12 11 11 10 9 9 8 8 9 9 10 10 8 11 10 9 10 8 13 15 12 11 9 6 7 8 7 9 10 7 4 9 12 13 14 15 13 11 11 8 10 17 11 8 8 8 9 9 9 9 10 10 10 10 10 11 10 9 6 7 7 7 7 7 7 7 7 7 7 7 7 7 7 7 5 5 5 6 5 5 6 6 5
12 13 12 10 11 10 10 10 10 8 8 8 7 9 11 7 10 14 15 12 12 14 16 18 17 14 9 9 8 11 12 6 8 10 12 14 15 16 16 15 16 15 16 12 8 8 8 8 8 8 9 9 9 9 9 9 10 10 10 9 6 6 6 6 6 7 7 7 7 7 7 8 8 8 8 7 7 6 5 4 5 5 6 6 6
11 13 13 12 13 12 10 10 10 10 9 7 7 8 8 10 10 7 9 12 13 14 15 15 15 14 14 12 9 6 8 10 10 10 11 13 14 15 17 16 17 18 20 18 9 7 8 8 7 7 8 8 8 8 8 9 9 10 9 9 8 7 8 7 7 7 7 7 8 8 8 8 8 8 7 7 7 6 6 6 5 6 5 5 6
12 13 13 13 13 14 12 11 11 10 10 9 8 6 7 8 9 11 5 7 10 11 12 12 12 11 11 11 12 9 7 7 10 11 11 13 14 15 16 17 18 21 21 12 9 9 8 7 7 6 7 7 7 7 7 8 8 8 9 9 9 7 6 6 8 7 8 9 8 8 8 8 7 7 7 7 7 7 6 6 6 6 6 6 5
14 12 12 13 13 13 12 12 11 11 9 9 8 8 7 8 8 8 9 7 6 8 10 12 12 11 12 12 12 12 12 11 11 11 12 13 15 16 15 12 18 22 18 9 8 8 8 8 8 8 7 7 7 7 7 7 7 7 7 6 5 6 6 7 8 8 7 8 8 7 7 7 7 8 7 7 7 6 7 6 6 7 6 6 6
12 13 17 14 11 12 12 11 11 11 11 10 9 8 9 8 8 8 8 8 8 8 7 5 7 10 9 8 10 12 11 10 10 11 12 13 15 15 15 9 10 11 11 7 7 6 6 7 6 7 7 7 7 7 7 6 6 6 6 6 5 6 6 7 7 7 7 7 7 7 7 8 8 7 8 8 7 7 7 7 6 7 6 5 5
13 12 12 12 10 10 10 10 10 10 10 10 9 9 8 7 7 7 7 7 7 7 7 5 4 4 8 10 8 8 9 10 10 11 12 14 14 16 9 7 7 7 7 6 6 5 5 5 5 5 5 5 5 5 5 6 6 6 5 6 7 7 8 8 7 7 7 7 7 7 7 7 7 7 7 7 9 8 7 7 6 6 6 5 5
11 11 11 11 11 10 11 11 10 10 10 10 9 9 8 7 6 6 5 6 6 6 5 4 3 4 3 1 3 6 8 9 9 10 11 11 14 10 4 5 5 5 5 5 6 5 5 4 4 5 5 5 5 5 5 5 5 5 5 6 6 7 7 7 7 7 8 7 7 7 8 7 7 7 8 7 6 6 6 6 6 6 6 5 5
13 12 12 13 13 13 12 11 11 12 10 10 9 8 8 8 7 7 6 6 5 4 5 4 3 3 3 3 1 1 2 4 5 6 8 9 8 5 3 2 3 3 3 3 4 5 4 4 4 5 4 5 6 5 6 6 6 6 6 6 6 6 8 8 8 8 7 7 7 7 7 7 7 7 6 7 7 6 6 7 7 6 5 6 5
11 17 21 22 18 13 11 11 11 10 9 9 8 8 8 7 7 7 6 5 4 4 3 3 3 2 2 2 1 1 3 2 2 2 3 4 3 2 3 3 3 3 3 4 4 5 5 5 4 5 5 5 6 6 6 6 6 6 6 6 6 6 7 6 7 6 7 6 6 6 6 6 6 6 6 7 7 7 7 7 7 7 6 5 5
13 12 14 20 14 14 12 11 11 10 9 9 8 7 8 7 8 7 6 5 4 4 4 4 3 2 1 0 0 1 3 1 1 0 1 2 2 2 3 3 3 3 3 3 3 4 4 4 4 5 5 5 5 5 5 6 6 6 6 7 7 7 7 7 7 7 6 6 6 6 6 6 6 6 6 6 6 6 7 6 6 6 6 6 5
11 13 14 15 16 14 12 11 10 10 9 8 8 7 8 7 6 4 4 4 4 4 4 3 3 2 2 2 4 3 3 3 2 2 2 3 3 3 3 3 3 3 3 3 3 3 3 4 3 4 4 4 4 5 5 5 5 6 6 6 6 6 6 6 7 7 7 7 7 6 6 6 6 7 7 5 5 6 5 6 5 5 5 6 6
12 12 13 12 14 11 11 11 9 10 10 7 8 8 5 5 6 5 4 4 3 4 4 3 2 1 2 5 4 5 4 3 3 3 4 4 4 4 4 4 3 3 3 4 4 4 4 4 4 4 5 5 5 5 5 5 6 6 7 7 7 7 7 7 7 7 7 6 6 6 6 6 6 6 6 6 5 5 6 6 6 6 6 6 6
13 12 12 12 12 11 10 10 10 9 8 7 7 5 4 5 5 4 4 3 5 4 4 4 2 0 1 2 4 6 4 4 3 4 4 4 4 5 4 4 4 4 4 4 3 3 4 4 4 3 4 4 4 5 6 6 6 6 6 7 7 7 7 6 6 6 6 6 6 6 7 6 6 6 6 6 6 6 6 6 6 6 6 6 6
11 11 11 11 11 11 10 10 9 8 7 5 4 2 2 3 3 3 4 5 5 5 5 4 4 3 3 4 5 4 4 4 4 5 4 3 4 4 3 3 3 4 4 4 4 3 4 5 5 4 5 5 4 4 3 3 4 6 6 6 6 6 6 6 6 6 6 6 6 6 6 6 6 6 6 6 7 7 7 7 7 7 6 6 6
10 9 10 10 10 10 9 7 6 5 3 1 1 1 1 2 2 2 3 4 3 4 4 4 4 4 3 4 4 5 5 6 4 3 4 5 5 4 3 4 4 5 4 4 4 4 4 4 5 5 6 5 4 4 4 4 5 4 2 4 6 6 5 6 5 6 6 7 7 6 6 6 6 6 6 6 6 7 7 8 8 7 7 6 6
9 9 8 8 8 7 6 5 3 4 3 2 1 2 2 3 2 3 2 3 3 4 4 4 4 4 4 4 4 4 4 4 5 5 4 4 4 4 3 4 5 5 5 5 5 6 5 5 4 4 4 4 5 5 5 5 5 5 5 5 5 5 4 4 4 5 4 4 5 5 6 6 6 6 6 7 7 7 7 6 5 6 7 7 7
9 8 7 7 7 6 6 6 6 5 5 5 5 4 4 4 3 3 3 4 5 3 5 4 5 5 5 4 5 4 4 5 4 4 5 4 5 4 4 5 5 6 6 6 6 5 5 5 5 5 6 5 5 6 5 5 5 5 5 5 6 5 4 4 4 5 5 5 5 5 5 5 6 5 5 5 5 5 6 6 7 7 6 6 6
9 8 8 7 7 6 7 7 7 7 5 6 6 5 5 4 3 3 3 5 6 5 6 5 5 4 4 5 4 4 4 4 4 4 4 4 4 4 5 5 5 4 5 6 6 6 6 5 5 5 5 5 6 6 6 6 5 5 4 4 4 4 5 5 4 4 4 4 4 5 6 5 5 5 5 6 6 6 6 5 5 4 5 6 5
9 8 8 8 8 7 7 7 6 6 6 6 6 6 5 5 5 5 6 6 6 6 6 5 5 5 6 5 5 4 4 4 4 4 4 4 4 4 4 4 5 4 4 4 4 4 5 5 5 7 7 6 6 5 5 5 6 5 6 5 6 8 7 7 5 6 5 5 5 5 4 5 5 5 5 5 5 5 5 5 5 6 5 4 5
9 9 9 9 9 8 7 7 7 6 6 7 6 5 5 4 5 6 6 7 6 6 6 6 5 5 5 5 4 4 4 4 4 4 4 4 4 4 3 4 4 4 4 4 4 4 4 4 4 4 6 6 6 6 6 6 5 5 4 4 8 9 8 8 7 6 5 4 5 5 5 5 5 5 5 5 5 6 5 6 5 6 5 6 5
9 9 8 8 8 8 8 8 8 8 7 6 6 5 5 6 6 6 6 6 6 5 5 5 5 6 6 5 4 5 4 5 4 4 4 4 4 4 4 4 4 4 4 4 4 4 4 4 3 5 6 7 6 6 4 4 3 2 4 7 8 8 7 6 5 6 6 5 5 5 5 6 6 5 5 5 5 5 5 6 5 6 5 5 5
Wind_Direction
219 232 217 231 233 233 232 225 230 225 226 221 227 231 229 223 222 217 204 218 199 211 215 216 218 221 223 223 227 229 230 229 221 215 213 217 217 216 215 213 215 218 217 220 217 217 219 219 218 216 209 206 210 201 195 195 194 199 198 195 204 196 181 186 205 189 297 348 171 172 160 154 179 188 179 179 180 193 191 195 190 202 212 222 224
224 232 222 230 230 237 237 234 233 229 229 228 230 233 228 224 220 210 219 218 197 212 215 214 216 220 224 225 224 226 229 229 220 217 219 218 219 215 217 214 218 221 217 222 218 218 218 222 223 218 210 209 208 207 201 198 197 200 203 199 199 190 191 183 200 170 190 127 116 120 151 174 169 181 182 180 189 174 194 195 197 202 212 213 222
226 223 228 231 237 237 240 237 228 230 230 232 234 233 232 228 210 215 223 220 212 213 212 210 212 216 223 228 226 223 223 226 222 214 218 219 221 220 216 214 216 217 218 220 218 216 218 222 226 220 214 215 213 213 206 205 200 202 203 203 204 197 190 191 164 181 167 192 164 161 169 180 180 178 187 181 169 171 188 198 201 205 212 214 220
230 225 231 238 240 239 237 235 224 229 230 233 234 234 229 225 212 220 224 214 218 219 214 214 210 213 222 225 226 226 225 224 221 218 222 223 224 223 220 218 217 219 219 220 219 216 217 220 225 217 214 219 219 212 205 203 199 202 200 198 205 205 199 194 194 152 163 155 192 185 182 168 175 151 162 154 154 167 189 196 195 213 217 217 220
223 234 233 244 246 240 242 230 226 230 233 235 237 234 229 226 216 222 219 221 221 214 218 213 215 215 219 222 222 223 225 221 223 225 226 226 227 227 226 225 224 223 222 221 218 216 216 219 220 215 209 215 220 216 209 204 204 203 204 202 204 199 189 191 186 160 153 175 162 178 175 158 96 132 155 155 153 142 139 193 208 214 223 225 227
227 234 236 240 248 243 242 233 232 234 236 239 237 232 229 224 224 226 218 223 220 218 215 211 213 217 220 222 222 224 216 215 222 226 227 227 229 229 229 227 226 226 226 225 223 219 219 219 218 208 206 209 215 212 209 210 203 206 208 204 202 195 192 192 181 169 164 166 162 142 174 164 136 109 165 162 159 167 179 194 194 229 222 238 232
236 235 240 239 251 250 243 236 235 238 237 238 238 234 230 228 224 229 221 224 223 223 220 218 216 217 223 223 224 224 219 213 217 224 227 227 227 228 229 229 229 228 227 226 225 223 221 222 220 212 211 213 214 212 210 207 203 207 207 203 194 185 187 187 174 162 157 145 154 157 151 166 156 151 145 157 148 172 185 191 230 219 217 225 244
248 244 243 248 249 254 247 240 239 242 243 241 238 236 234 230 229 233 224 227 228 228 224 221 222 219 225 224 225 224 224 223 221 222 224 225 225 228 228 229 229 229 229 228 226 224 222 221 220 216 213 214 213 215 205 206 207 208 205 195 185 183 185 177 167 155 147 147 155 156 165 154 113 60 79 112 103 243 205 193 211 210 213 215 224
248 245 246 249 252 253 262 255 249 247 243 242 239 236 233 232 233 231 229 235 234 234 232 225 224 229 231 228 229 222 223 225 224 221 223 223 223 227 228 230 230 232 232 231 227 226 225 223 223 220 216 217 216 213 204 203 199 206 200 188 184 185 176 171 166 157 154 152 144 139 148 156 166 143 153 168 195 202 180 179 215 208 163 203 236
237 246 247 250 258 267 271 271 252 243 243 239 238 236 233 232 230 233 234 235 237 235 234 230 228 231 231 231 228 225 227 227 227 224 219 220 220 225 228 230 230 232 233 233 232 227 226 224 225 221 218 219 219 218 216 212 211 207 190 184 180 175 173 170 170 166 157 161 158 156 162 177 179 185 185 197 187 131 137 172 206 201 132 225 276
236 242 254 258 270 276 269 261 254 252 247 246 244 236 235 231 231 235 238 235 235 234 227 231 232 233 233 233 231 229 230 228 226 226 227 226 224 224 225 230 230 233 233 233 234 229 228 227 229 225 223 224 225 224 220 218 216 213 202 192 182 175 169 170 174 170 167 166 163 169 176 180 190 186 192 180 181 189 188 180 196 167 185 189 225
241 253 256 275 275 270 266 268 260 256 251 248 243 241 237 233 234 236 238 238 236 229 230 232 234 232 234 235 236 235 235 228 226 228 227 228 225 228 231 231 230 231 231 231 233 231 229 226 226 222 219 219 220 221 218 213 207 202 199 194 190 187 180 177 173 173 173 166 168 177 174 186 182 179 186 177 190 187 192 180 186 184 188 196 196
244 257 267 267 273 275 273 266 262 263 257 256 252 245 238 240 241 238 238 238 238 230 234 234 235 234 234 237 238 237 240 230 228 229 228 229 229 228 235 233 233 234 232 232 231 230 228 226 227 220 218 213 215 214 211 219 221 215 205 199 198 196 194 188 180 177 171 169 171 180 184 178 175 190 186 186 175 187 186 192 194 193 196 194 205
273 276 284 278 278 282 280 273 269 266 267 262 253 247 242 243 242 240 247 242 234 240 238 237 238 235 234 237 241 240 239 232 229 231 230 229 229 229 237 237 236 236 234 232 232 230 227 225 224 224 218 211 211 207 200 200 197 202 207 200 199 203 201 209 211 193 181 176 175 179 190 171 180 185 184 174 176 189 183 198 192 193 195 205 183
306 297 288 282 280 271 265 259 262 266 264 259 252 247 245 254 250 243 239 238 236 238 238 239 239 237 239 238 244 244 241 232 230 230 230 230 230 229 237 237 239 240 238 236 234 232 230 228 225 225 217 211 212 205 201 196 193 197 199 205 201 209 200 192 188 178 173 155 166 177 176 184 182 171 174 178 187 189 186 191 189 192 167 77 51
285 281 283 282 274 267 266 272 269 271 271 266 257 259 255 250 254 247 243 247 243 247 249 241 245 241 239 239 243 249 246 233 231 230 229 230 230 232 236 238 241 241 241 238 236 235 233 228 228 226 219 215 209 207 204 188 189 189 187 183 183 186 198 185 175 171 168 173 187 183 178 177 159 151 160 173 181 149 94 56 85 104 130 151 192
323 322 319 320 321 321 319 314 310 307 302 296 281 272 268 263 256 240 248 246 244 242 242 241 241 241 241 237 240 249 252 235 232 232 229 229 228 234 236 239 243 243 242 239 236 236 233 229 227 228 221 219 209 200 193 183 189 185 185 184 183 185 185 164 158 169 171 178 183 156 147 151 150 152 162 172 168 148 134 137 168 155 146 179 202
317 316 315 313 313 316 315 313 308 307 305 292 284 278 268 261 258 231 237 248 246 244 242 249 244 238 240 240 236 246 252 238 232 234 230 227 223 230 233 237 244 243 246 240 237 236 233 227 222 222 220 215 206 194 188 183 187 184 179 176 176 182 186 179 175 175 160 148 142 139 140 151 162 167 172 176 168 157 159 181 173 155 183 190 202
308 311 309 309 304 303 302 299 289 288 286 279 275 276 272 263 260 235 238 241 250 252 242 248 251 243 239 244 243 243 253 247 233 235 231 228 225 230 233 239 245 245 245 246 240 238 238 231 222 219 216 214 201 192 188 183 178 179 177 176 184 190 188 172 174 163 157 150 153 150 148 159 164 168 178 182 172 174 184 175 152 175 191 196 174
304 305 300 299 296 293 288 283 277 271 275 278 274 265 269 272 261 247 248 237 251 250 244 246 253 253 241 242 245 241 249 251 236 235 233 230 225 225 230 237 243 247 243 245 246 240 236 234 225 223 223 208 193 192 185 175 177 180 178 186 190 195 179 175 179 163 168 176 171 164 155 153 157 161 175 185 180 182 193 178 174 180 188 184 183
304 299 295 292 290 285 280 269 278 277 263 271 278 275 266 265 268 257 256 253 246 255 248 248 252 257 249 241 245 243 238 247 243 232 236 233 230 226 232 234 239 242 246 245 242 243 232 226 224 224 210 191 189 186 180 182 184 183 188 195 198 182 160 177 169 164 170 167 157 153 148 154 168 170 177 187 188 186 193 190 183 186 179 178 179
304 302 299 296 293 291 286 281 267 274 280 274 279 278 270 254 259 259 257 255 254 256 255 251 254 260 257 244 242 246 236 234 243 235 233 234 233 229 231 236 232 236 244 248 244 241 233 218 219 219 204 186 187 188 190 190 185 187 201 200 191 173 172 168 160 163 167 159 148 147 150 156 168 177 183 189 194 187 187 193 187 188 191 183 178
307 304 302 299 297 294 293 289 286 285 280 275 270 275 276 267 261 253 253 257 255 261 259 255 256 263 264 253 245 242 237 233 232 235 233 233 235 234 233 236 233 231 238 246 241 235 215 201 198 188 189 181 190 192 192 193 190 197 197 192 192 178 153 162 158 160 157 152 149 160 169 172 177 186 188 194 198 188 185 186 183 178 184 182 183
303 302 300 298 299 298 295 290 283 276 275 276 272 271 276 270 264 256 245 250 257 261 263 255 256 261 264 266 253 237 235 233 232 230 232 233 235 236 237 237 234 229 231 240 239 221 206 196 187 185 193 190 190 191 195 196 195 195 188 185 182 170 160 153 159 159 149 145 154 162 177 180 175 185 199 198 191 188 175 165 163 169 169 170 172
306 298 296 294 292 291 291 285 283 278 270 266 275 276 275 273 274 265 234 250 249 255 262 253 252 260 264 264 266 248 227 229 233 230 232 236 240 242 241 238 236 232 234 239 222 217 203 198 188 188 192 192 192 197 201 200 196 186 184 172 163 161 165 164 159 152 152 160 168 172 171 181 189 185 161 155 137 119 130 123 118 127 120 118 123
305 299 297 294 289 288 291 291 282 268 271 264 259 266 273 280 273 273 248 246 248 250 261 257 255 257 262 265 265 261 238 225 231 232 234 239 242 242 241 239 238 233 231 226 215 199 193 183 182 187 192 195 195 199 203 201 196 186 183 168 167 163 164 159 155 155 157 159 164 172 176 160 163 139 126 136 154 176 162 157 149 149 141 138 112
300 297 298 302 303 303 302 299 305 303 290 278 269 267 266 265 266 266 255 250 251 252 254 257 258 257 261 264 264 262 253 229 228 230 230 234 236 239 241 247 243 238 231 217 196 185 181 182 180 186 190 195 196 198 198 189 187 181 177 171 170 168 163 161 159 155 151 151 161 155 128 128 112 128 155 161 178 179 173 161 161 165 151 152 149
305 302 301 302 297 299 300 297 299 297 299 292 284 284 261 245 254 255 251 240 246 253 250 250 251 252 259 262 264 264 255 234 219 224 233 225 235 234 236 238 233 221 212 200 181 174 171 174 178 185 188 196 198 199 191 181 181 182 183 170 162 160 159 140 119 131 138 147 128 117 115 137 161 169 158 172 180 169 166 163 163 158 152 141 147
302 298 297 298 292 293 288 285 285 286 286 287 263 248 266 270 257 261 250 229 232 245 249 252 249 245 252 258 263 267 259 241 234 222 231 228 223 227 226 226 219 215 200 172 154 153 158 169 174 178 186 191 194 195 188 180 182 184 183 173 155 155 150 153 152 151 147 136 143 153 155 159 167 166 163 169 178 166 160 159 163 157 148 158 191
304 297 296 294 290 293 289 283 277 274 274 279 289 284 235 229 247 254 272 249 239 242 240 248 247 245 252 251 238 250 260 260 194 203 218 224 226 228 230 223 216 198 189 177 160 166 174 174 183 183 186 188 190 188 185 181 179 181 187 180 156 151 155 159 152 151 147 146 146 150 163 164 167 168 172 172 165 164 166 168 170 162 165 181 189
301 296 296 292 291 293 290 289 286 278 274 276 280 283 297 272 240 251 254 258 252 249 247 248 252 250 244 260 249 243 254 244 207 213 215 221 225 229 227 223 211 199 180 165 166 175 179 183 186 187 189 186 187 184 178 177 175 176 182 186 173 166 159 157 151 142 145 145 155 163 163 170 171 172 173 173 164 161 157 169 160 174 185 183 191
298 296 297 296 297 294 288 285 285 283 280 268 262 276 278 290 290 249 251 257 256 253 253 253 252 248 241 241 248 255 246 237 227 217 219 221 227 229 226 216 208 187 180 168 166 183 185 184 185 186 185 186 184 178 176 175 176 176 174 178 180 179 172 170 151 142 150 156 165 168 169 172 173 171 170 161 157 161 169 170 173 176 182 180 194
298 294 293 295 295 294 291 289 285 281 278 275 268 247 257 264 277 293 260 239 256 265 265 261 254 249 249 251 245 239 236 227 220 221 217 224 227 228 223 212 195 180 175 174 177 179 183 184 182 180 182 187 182 180 181 179 178 177 177 180 178 175 166 144 141 151 163 173 166 170 168 170 165 161 162 158 163 172 170 178 173 178 177 183 189
292 287 290 292 293 290 289 287 285 282 275 267 261 256 246 244 254 259 281 288 273 261 257 259 262 263 259 252 248 247 243 235 229 227 226 227 226 226 215 202 190 181 179 181 181 181 177 180 178 176 179 181 182 181 183 183 181 178 172 172 158 142 143 136 152 166 163 169 169 166 161 164 160 159 165 163 170 163 170 176 169 174 188 187 185
291 283 278 278 277 279 280 279 279 278 277 271 264 255 251 244 239 247 249 260 268 272 270 262 255 251 251 258 256 250 243 238 234 233 231 228 226 222 205 194 195 194 189 178 180 178 178 180 178 172 169 175 179 176 180 176 174 177 174 158 134 135 138 156 165 162 163 163 159 164 164 160 164 163 161 162 163 172 174 171 176 179 177 175 171
300 296 297 289 280 273 272 275 272 271 271 271 265 258 255 248 240 240 239 240 253 263 272 256 256 283 267 256 257 252 243 238 235 233 231 226 222 211 201 194 193 192 190 176 173 174 164 166 161 158 156 155 148 157 163 166 170 167 160 157 159 159 161 164 164 162 163 160 163 155 153 159 157 157 155 161 170 172 168 169 168 171 172 171 166
300 294 292 294 292 287 284 278 273 269 267 265 262 260 255 252 245 242 236 234 237 246 256 271 295 291 313 336 287 261 247 235 235 233 226 221 216 209 193 195 188 184 185 170 167 159 159 149 142 139 148 152 145 149 145 156 150 151 153 159 159 161 169 166 159 155 158 160 156 159 161 160 157 160 159 162 164 162 163 162 162 165 165 168 165
292 291 294 297 295 290 286 282 279 274 267 260 256 252 250 245 238 232 231 229 219 226 243 245 247 259 267 288 325 178 262 225 226 230 212 211 215 193 163 143 150 162 164 122 144 140 140 129 129 138 139 143 151 152 155 156 159 159 160 155 157 161 161 162 166 158 156 154 158 159 156 155 158 157 158 160 166 165 166 165 161 165 160 181 181
294 293 292 292 289 285 281 283 280 277 268 262 253 247 243 240 235 226 222 202 200 209 219 227 232 268 313 307 339 87 122 139 168 215 186 194 203 142 135 142 142 123 113 134 134 148 149 158 153 148 155 159 158 159 157 154 151 154 151 148 148 155 163 154 158 159 162 162 154 154 153 154 154 160 161 160 166 166 166 165 167 160 162 177 194
299 301 301 299 294 287 282 277 277 270 265 261 257 243 241 235 233 228 214 197 193 190 189 200 195 173 230 333 359 65 113 94 98 60 88 115 96 90 127 141 138 130 124 127 136 141 141 136 143 143 147 146 151 153 156 153 158 158 155 159 158 166 164 160 158 161 165 154 151 155 156 157 157 156 160 165 161 157 160 163 159 158 165 173 178
294 295 298 298 292 290 284 279 273 269 266 257 252 245 238 235 230 224 206 194 170 168 187 187 182 196 164 166 160 114 105 108 104 81 63 80 83 80 75 78 93 87 80 98 98 106 114 124 129 136 138 143 148 149 154 153 150 153 157 156 155 158 153 155 157 156 157 155 157 157 158 154 153 157 165 170 157 153 155 148 150 155 166 171 179
292 293 293 292 292 285 283 280 279 273 265 257 250 243 236 224 216 209 202 179 164 164 167 149 153 245 214 166 162 127 102 75 83 86 87 95 93 83 78 68 64 86 110 122 135 136 134 138 141 144 146 146 148 151 150 156 157 156 157 159 159 153 154 159 161 159 157 157 154 158 160 158 159 168 167 161 161 156 155 161 167 171 175 184 185
288 286 289 287 287 282 282 283 283 280 269 261 249 249 240 226 210 200 180 162 155 155 150 144 160 142 131 199 149 112 88 79 76 76 76 82 80 77 68 60 45 42 43 43 51 99 118 117 114 111 126 139 148 155 163 162 158 151 153 156 154 153 151 150 151 154 150 150 157 158 157 159 160 163 163 161 163 163 168 169 172 174 179 180 184
286 286 281 282 283 283 280 278 278 272 268 275 276 263 237 228 218 186 164 153 152 145 144 147 152 144 92 56 75 76 80 75 68 64 60 81 75 76 71 67 64 61 60 47 29 38 97 103 95 74 59 54 44 59 72 97 136 150 152 146 145 148 147 148 153 155 156 154 154 154 157 158 160 162 168 171 167 170 174 174 176 179 178 183 181
271 278 290 295 295 292 293 292 291 294 298 300 348 13 340 296 223 172 139 138 128 124 129 132 133 112 88 64 65 76 65 59 69 70 65 60 64 59 51 50 50 55 54 38 18 22 64 88 97 92 76 55 53 55 54 41 36 45 70 137 151 160 164 163 162 159 160 161 159 156 158 158 165 168 170 172 174 177 180 183 182 177 177 179 177
297 303 305 310 310 311 312 311 315 321 320 343 21 35 17 13 17 42 67 73 84 96 97 83 77 75 77 72 66 66 66 65 63 62 60 47 50 44 33 42 59 59 50 45 34 37 33 43 70 85 83 76 74 68 62 54 57 55 52 47 64 74 68 73 82 99 113 132 143 149 151 156 167 174 176 173 178 179 184 178 177 179 181 179 185
318 318 325 331 331 331 334 335 344 354 359 9 26 30 38 32 25 53 71 80 88 92 88 89 70 68 62 63 64 67 63 62 55 60 60 52 51 37 40 55 61 61 62 56 52 52 43 47 55 71 79 81 77 69 66 65 67 63 60 73 85 85 80 81 76 98 104 111 119 125 142 154 160 158 164 155 157 171 170 173 173 176 175 173 174
327 331 335 340 339 350 357 358 353 2 15 19 26 21 16 18 13 34 60 68 66 71 70 69 56 63 74 58 57 58 65 73 79 73 73 68 60 54 57 57 55 51 53 57 55 61 62 61 68 76 81 79 83 83 71 53 61 69 64 62 64 81 83 88 92 84 90 107 119 133 144 149 150 155 157 164 166 162 163 168 159 166 164 164 165
341 347 347 349 349 351 358 360 1 358 6 11 24 30 19 4 9 17 30 46 52 59 47 49 54 52 60 60 67 67 66 63 63 63 60 65 69 67 67 63 54 42 45 48 36 41 55 58 62 43 52 67 65 69 66 46 55 49 54 53 73 76 73 71 71 67 73 89 93 96 102 115 134 142 146 152 157 161 163 155 161 163 160 160 160
348 351 358 358 357 356 359 9 7 6 14 26 23 24 24 25 24 34 33 43 33 27 40 47 49 48 55 56 60 52 49 52 55 58 58 67 67 71 50 50 49 35 42 50 45 43 43 42 46 48 50 32 39 37 39 46 55 55 56 86 91 85 81 80 80 82 86 92 101 112 118 121 121 135 146 151 149 154 156 164 166 159 162 162 171
349 354 357 2 360 357 2 7 8 10 12 12 11 20 20 28 33 30 37 35 36 31 29 34 38 37 41 41 43 40 41 53 50 55 59 61 54 49 34 42 43 45 51 50 53 49 48 41 47 44 35 32 32 31 52 59 64 98 104 100 99 97 91 86 90 87 95 101 110 113 124 132 136 133 139 141 145 155 167 155 154 161 163 168 164